| time (UTC) | temp C | wind direction | speed KPH | gust KPH | rain 1hr cm | rain 24hr cm | rain mn cm | humidity % | barometer mb |
| 20260906100100 | 22 | 208 | 0.0 | 0.0 | 0.00 | 0.30 | 0.00 | 87 | 1010.9 |
| 20260906094607 | 22 | 207 | 0.0 | 0.0 | 0.00 | 0.30 | 0.00 | 87 | 1010.9 |
| 20260906093057 | 23 | 207 | 0.0 | 0.0 | 0.00 | 0.30 | 0.00 | 87 | 1010.9 |
| 20260906091604 | 23 | 207 | 0.0 | 0.0 | 0.00 | 0.30 | 0.00 | 87 | 1010.8 |
| 20260906090056 | 23 | 207 | 0.0 | 0.0 | 0.00 | 0.30 | 0.00 | 87 | 1010.9 |
| 20260906084557 | 23 | 207 | 0.0 | 0.0 | 0.00 | 0.30 | 0.00 | 87 | 1010.7 |
| 20260906083054 | 23 | 207 | 0.0 | 0.0 | 0.00 | 0.30 | 0.00 | 87 | 1010.6 |
| 20260906081553 | 23 | 207 | 0.0 | 0.0 | 0.00 | 0.30 | 0.00 | 87 | 1010.7 |
| 20260906080053 | 23 | 208 | 0.0 | 0.0 | 0.00 | 0.30 | 0.00 | 86 | 1010.6 |
| 20260906074553 | 23 | 208 | 0.0 | 0.0 | 0.00 | 0.30 | 0.00 | 87 | 1010.8 |
| 20260906073051 | 23 | 207 | 0.0 | 0.0 | 0.00 | 0.30 | 0.00 | 86 | 1010.9 |
| 20260906071551 | 23 | 207 | 0.0 | 0.0 | 0.00 | 0.30 | 0.00 | 87 | 1010.3 |
| 20260906070050 | 23 | 208 | 0.0 | 0.0 | 0.00 | 0.30 | 0.00 | 86 | 1010.1 |
| 20260906064549 | 23 | 207 | 0.0 | 0.0 | 0.00 | 0.30 | 0.00 | 86 | 1010.3 |
| 20260906063048 | 23 | 208 | 0.0 | 0.0 | 0.00 | 0.30 | 0.00 | 86 | 1010.4 |
| 20260906061545 | 23 | 207 | 0.0 | 0.0 | 0.00 | 0.30 | 0.00 | 86 | 1010.8 |
| 20260906060044 | 23 | 207 | 0.0 | 0.0 | 0.00 | 0.30 | 0.00 | 85 | 1010.6 |
| 20260906054544 | 23 | 207 | 0.0 | 0.0 | 0.00 | 0.30 | 0.00 | 85 | 1010.9 |
| 20260906053050 | 23 | 208 | 0.0 | 0.0 | 0.00 | 0.30 | 0.00 | 85 | 1011.2 |
| 20260906051541 | 23 | 207 | 0.0 | 0.0 | 0.00 | 0.30 | 0.00 | 84 | 1011.0 |
| 20260906050049 | 23 | 208 | 0.0 | 0.0 | 0.00 | 0.30 | 0.00 | 84 | 1011.0 |
| 20260906044538 | 24 | 208 | 0.0 | 0.0 | 0.00 | 0.30 | 0.00 | 84 | 1011.1 |
| 20260906043037 | 23 | 208 | 0.0 | 0.0 | 0.00 | 0.30 | 0.00 | 84 | 1011.2 |
| 20260906041534 | 23 | 208 | 0.0 | 0.0 | 0.00 | 0.30 | 0.00 | 83 | 1011.4 |
| 20260906040032 | 24 | 208 | 0.0 | 0.0 | 0.00 | 0.30 | 0.00 | 83 | 1011.5 |
| 20260906034531 | 24 | 208 | 0.0 | 0.0 | 0.00 | 0.30 | 0.30 | 83 | 1011.3 |
| 20260906033030 | 25 | 208 | 0.0 | 0.0 | 0.00 | 0.30 | 0.30 | 83 | 1011.4 |
| 20260906031529 | 25 | 208 | 0.0 | 0.0 | 0.00 | 0.30 | 0.30 | 83 | 1011.4 |
| 20260906030029 | 25 | 208 | 0.0 | 0.0 | 0.00 | 0.30 | 0.30 | 82 | 1011.2 |
| 20260906024529 | 25 | 207 | 0.0 | 0.0 | 0.00 | 0.30 | 0.30 | 82 | 1011.2 |
| 20260906023033 | 25 | 208 | 0.0 | 0.0 | 0.00 | 0.30 | 0.30 | 81 | 1011.1 |
| 20260906021529 | 25 | 208 | 0.0 | 0.0 | 0.00 | 0.30 | 0.30 | 81 | 1011.0 |
| 20260906020027 | 25 | 208 | 0.0 | 0.0 | 0.00 | 0.30 | 0.30 | 81 | 1010.8 |
| 20260906014529 | 25 | 208 | 0.0 | 0.0 | 0.00 | 0.30 | 0.30 | 81 | 1010.8 |
| 20260906013036 | 25 | 208 | 0.0 | 0.0 | 0.00 | 0.30 | 0.30 | 81 | 1010.5 |
| 20260906011527 | 26 | 207 | 0.0 | 0.0 | 0.00 | 0.30 | 0.30 | 79 | 1010.6 |
| 20260906010026 | 26 | 208 | 0.0 | 0.0 | 0.00 | 0.30 | 0.30 | 79 | 1010.5 |
| 20260906004525 | 26 | 208 | 0.0 | 0.0 | 0.00 | 0.30 | 0.30 | 78 | 1010.3 |
| 20260906003025 | 26 | 207 | 0.0 | 0.0 | 0.00 | 0.30 | 0.30 | 78 | 1010.4 |
| 20260906001525 | 27 | 207 | 0.0 | 1.6 | 0.00 | 0.30 | 0.30 | 77 | 1010.2 |
| 20260906000040 | 27 | 208 | 0.0 | 0.0 | 0.00 | 0.30 | 0.30 | 75 | 1010.2 |
| 20260905234523 | 27 | 208 | 0.0 | 0.0 | 0.00 | 0.30 | 0.30 | 74 | 1010.2 |
| 20260905233023 | 28 | 208 | 0.0 | 0.0 | 0.00 | 0.30 | 0.30 | 74 | 1010.2 |
| 20260905231523 | 28 | 208 | 0.0 | 0.0 | 0.00 | 0.30 | 0.30 | 73 | 1010.2 |
| 20260905230022 | 29 | 208 | 0.0 | 0.0 | 0.00 | 0.30 | 0.30 | 71 | 1010.0 |
| 20260905224522 | 30 | 208 | 0.0 | 0.0 | 0.00 | 0.30 | 0.30 | 70 | 1010.0 |
| 20260905223021 | 30 | 207 | 0.0 | 6.4 | 0.00 | 0.30 | 0.30 | 69 | 1009.9 |
| 20260905221521 | 31 | 225 | 0.0 | 6.4 | 0.00 | 0.30 | 0.30 | 68 | 1009.8 |
| 20260905220020 | 31 | 219 | 0.0 | 9.7 | 0.00 | 0.30 | 0.30 | 69 | 1009.9 |
| 20260905214519 | 31 | 175 | 0.0 | 0.0 | 0.00 | 0.30 | 0.30 | 67 | 1010.3 |
| 20260905213017 | 31 | 163 | 0.0 | 0.0 | 0.00 | 0.30 | 0.30 | 68 | 1010.3 |
| 20260905211516 | 32 | 157 | 0.0 | 4.8 | 0.00 | 0.30 | 0.30 | 66 | 1010.3 |
| 20260905210017 | 31 | 163 | 0.0 | 6.4 | 0.00 | 0.30 | 0.30 | 68 | 1010.2 |
| 20260905204515 | 31 | 219 | 0.0 | 3.2 | 0.00 | 0.30 | 0.30 | 71 | 1010.5 |
| 20260905203013 | 31 | 248 | 0.0 | 6.4 | 0.00 | 0.30 | 0.30 | 71 | 1010.6 |
| 20260905201512 | 31 | 252 | 0.0 | 0.0 | 0.00 | 0.30 | 0.30 | 71 | 1010.8 |
| 20260905200015 | 31 | 252 | 0.0 | 1.6 | 0.00 | 0.30 | 0.30 | 70 | 1010.9 |
| 20260905194512 | 30 | 254 | 0.0 | 0.0 | 0.00 | 0.30 | 0.30 | 76 | 1011.0 |
| 20260905193009 | 30 | 254 | 0.0 | 0.0 | 0.00 | 0.30 | 0.30 | 76 | 1011.2 |
| 20260905191505 | 29 | 254 | 0.0 | 0.0 | 0.00 | 0.30 | 0.30 | 81 | 1011.5 |
| 20260905190001 | 28 | 254 | 0.0 | 0.0 | 0.00 | 0.30 | 0.30 | 82 | 1012.1 |
| 20260905184617 | 28 | 254 | 0.0 | 0.0 | 0.00 | 0.30 | 0.30 | 82 | 1012.0 |
| 20260905183101 | 26 | 254 | 0.0 | 0.0 | 0.03 | 0.30 | 0.30 | 86 | 1011.8 |
| 20260905181600 | 25 | 254 | 0.0 | 0.0 | 0.30 | 0.30 | 0.30 | 86 | 1012.4 |
| 20260905180057 | 25 | 254 | 0.0 | 0.0 | 0.30 | 0.30 | 0.30 | 86 | 1012.5 |
| 20260905174556 | 25 | 254 | 0.0 | 0.0 | 0.30 | 0.30 | 0.30 | 84 | 1012.5 |
| 20260905173101 | 25 | 254 | 0.0 | 3.2 | 0.28 | 0.28 | 0.28 | 73 | 1012.8 |
| 20260905171558 | 30 | 198 | 0.0 | 11.3 | 0.00 | 0.00 | 0.00 | 61 | 1013.0 |
| 20260905170053 | 30 | 186 | 0.0 | 0.0 | 0.00 | 0.00 | 0.00 | 61 | 1012.5 |
| 20260905164551 | 33 | 186 | 0.0 | 0.0 | 0.00 | 0.00 | 0.00 | 53 | 1012.8 |
| 20260905163048 | 32 | 197 | 0.0 | 0.0 | 0.00 | 0.00 | 0.00 | 59 | 1012.8 |
| 20260905161547 | 31 | 200 | 0.0 | 0.0 | 0.00 | 0.00 | 0.00 | 61 | 1012.8 |
| 20260905160048 | 31 | 202 | 0.0 | 0.0 | 0.00 | 0.00 | 0.00 | 61 | 1012.9 |
| 20260905154606 | 30 | 212 | 0.0 | 0.0 | 0.00 | 0.00 | 0.00 | 63 | 1012.8 |
| 20260905153039 | 28 | 212 | 0.0 | 0.0 | 0.00 | 0.00 | 0.00 | 67 | 1013.0 |
| 20260905151537 | 28 | 212 | 0.0 | 0.0 | 0.00 | 0.00 | 0.00 | 67 | 1013.1 |
| 20260905150033 | 28 | 212 | 0.0 | 0.0 | 0.00 | 0.00 | 0.00 | 68 | 1013.2 |
| 20260905144534 | 27 | 212 | 0.0 | 0.0 | 0.00 | 0.00 | 0.00 | 68 | 1013.2 |
| 20260905143028 | 27 | 213 | 0.0 | 1.6 | 0.00 | 0.00 | 0.00 | 69 | 1013.4 |
| 20260905141528 | 26 | 159 | 0.0 | 0.0 | 0.00 | 0.00 | 0.00 | 72 | 1013.4 |
| 20260905140026 | 26 | 159 | 0.0 | 0.0 | 0.00 | 0.00 | 0.00 | 71 | 1013.5 |
| 20260905134522 | 26 | 159 | 0.0 | 0.0 | 0.00 | 0.00 | 0.00 | 72 | 1013.5 |
| 20260905133036 | 26 | 159 | 0.0 | 0.0 | 0.00 | 0.00 | 0.00 | 72 | 1013.5 |
| 20260905131521 | 26 | 159 | 0.0 | 0.0 | 0.00 | 0.00 | 0.00 | 74 | 1013.8 |
| 20260905130020 | 25 | 159 | 0.0 | 0.0 | 0.00 | 0.00 | 0.00 | 73 | 1013.9 |
| 20260905124520 | 25 | 212 | 0.0 | 0.0 | 0.00 | 0.00 | 0.00 | 76 | 1013.9 |
| 20260905123017 | 24 | 212 | 0.0 | 0.0 | 0.00 | 0.00 | 0.00 | 78 | 1013.8 |
| 20260905121516 | 24 | 212 | 0.0 | 0.0 | 0.00 | 0.00 | 0.00 | 79 | 1013.6 |
| 20260905120016 | 23 | 212 | 0.0 | 0.0 | 0.00 | 0.00 | 0.00 | 80 | 1013.3 |
| 20260905114511 | 23 | 212 | 0.0 | 0.0 | 0.00 | 0.00 | 0.00 | 80 | 1013.1 |
| 20260905113007 | 23 | 212 | 0.0 | 0.0 | 0.00 | 0.00 | 0.00 | 80 | 1012.9 |
| 20260905111506 | 23 | 212 | 0.0 | 0.0 | 0.00 | 0.00 | 0.00 | 80 | 1012.7 |
| 20260905110014 | 23 | 212 | 0.0 | 0.0 | 0.00 | 0.00 | 0.00 | 80 | 1012.7 |
| 20260905104503 | 23 | 212 | 0.0 | 0.0 | 0.00 | 0.00 | 0.00 | 80 | 1012.6 |
| 20260905103008 | 23 | 212 | 0.0 | 0.0 | 0.00 | 0.00 | 0.00 | 80 | 1012.3 |
| 20260905101502 | 23 | 212 | 0.0 | 0.0 | 0.00 | 0.00 | 0.00 | 80 | 1012.2 |